,,,PA_Meas_PMT16A,,PR_Meas_QMR101_102,,RH_Meas_QMH101,,SR_Meas_QMS101,,TA_Meas_QMH101,,GenWind,,GenWind,
date,time,status,PA,status,PR,status,RH,status,SR,status,TA,status,DirAvg,status,SpdAvg,
2012-02-14, 00:00:05,VALID,1000.96,VALID,0,VALID,91.8988,VALID,0,VALID,24.6166,VALID,116,VALID,0.842969,
2012-02-14, 00:01:05,VALID,1000.91,VALID,0,VALID,91.8835,VALID,0,VALID,24.5971,VALID,116,VALID,0.590234,
2012-02-14, 00:02:05,VALID,1000.91,VALID,0,VALID,91.8606,VALID,0,VALID,24.5775,VALID,116,VALID,0.525,
2012-02-14, 00:03:05,VALID,1000.88,VALID,0,VALID,91.8683,VALID,0,VALID,24.558,VALID,116,VALID,0.368359,
2012-02-14, 00:04:05,VALID,1000.88,VALID,0,VALID,91.8759,VALID,0,VALID,24.558,VALID,116,VALID,0.0234375,
2012-02-14, 00:05:05,VALID,1000.87,VALID,0,VALID,91.8759,VALID,0,VALID,24.5599,VALID,116,VALID,0,
2012-02-14, 00:06:05,VALID,1000.87,VALID,0,VALID,91.9445,VALID,0,VALID,24.5404,VALID,116,VALID,0.270312,
2012-02-14, 00:07:05,VALID,1000.88,VALID,0,VALID,92.0361,VALID,0,VALID,24.5385,VALID,116,VALID,0.409766,
2012-02-14, 00:08:05,VALID,1000.89,VALID,0,VALID,92.1963,VALID,0,VALID,24.5404,VALID,93,VALID,0.532422,
2012-02-14, 00:09:05,VALID,1000.9,VALID,0,VALID,92.2879,VALID,0,VALID,24.5209,VALID,43,VALID,0.764453,
2012-02-14, 00:10:05,VALID,1000.9,VALID,0,VALID,92.3337,VALID,0,VALID,24.5209,VALID,43,VALID,0.856641,
2012-02-14, 00:11:05,VALID,1000.88,VALID,0,VALID,92.3718,VALID,0,VALID,24.48,VALID,43,VALID,0.911328,
2012-02-14, 00:12:05,VALID,1000.91,VALID,0,VALID,92.4176,VALID,0,VALID,24.5013,VALID,43,VALID,0.775,
2012-02-14, 00:13:05,VALID,1000.83,VALID,0,VALID,92.5015,VALID,0,VALID,24.4604,VALID,43,VALID,0.606641,
2012-02-14, 00:14:05,VALID,1000.84,VALID,0,VALID,92.5626,VALID,0,VALID,24.4818,VALID,43,VALID,0.638672,
2012-02-14, 00:15:05,VALID,1000.83,VALID,0,VALID,92.6083,VALID,0,VALID,24.4604,VALID,43,VALID,0.557813,
2012-02-14, 00:16:05,VALID,1000.8,VALID,0,VALID,92.6083,VALID,0,VALID,24.4409,VALID,43,VALID,0.510938,
2012-02-14, 00:17:05,VALID,1000.78,VALID,0,VALID,92.6465,VALID,0,VALID,24.4623,VALID,43,VALID,0.521875,
2012-02-14, 00:18:05,VALID,1000.81,VALID,0,VALID,92.6617,VALID,0,VALID,24.4428,VALID,43,VALID,0.520312,
2012-02-14, 00:19:05,VALID,1000.81,VALID,0,VALID,92.6999,VALID,0,VALID,24.4214,VALID,43,VALID,0.419922,
2012-02-14, 00:20:05,VALID,1000.81,VALID,0,VALID,92.6999,VALID,0,VALID,24.4019,VALID,43,VALID,0.414844,
2012-02-14, 00:21:05,VALID,1000.79,VALID,0,VALID,92.6999,VALID,0,VALID,24.4019,VALID,43,VALID,0.648047,
2012-02-14, 00:22:05,VALID,1000.79,VALID,0,VALID,92.7457,VALID,0,VALID,24.4233,VALID,29,VALID,0.709375,
2012-02-14, 00:23:05,VALID,1000.77,VALID,0,VALID,92.8067,VALID,0,VALID,24.3842,VALID,29,VALID,0.700781,
2012-02-14, 00:24:05,VALID,1000.77,VALID,0,VALID,92.8372,VALID,0,VALID,24.3629,VALID,29,VALID,0.48125,
2012-02-14, 00:25:05,VALID,1000.73,VALID,0,VALID,92.8677,VALID,0,VALID,24.3629,VALID,29,VALID,0.477344,
2012-02-14, 00:26:05,VALID,1000.7,VALID,0,VALID,92.9288,VALID,0,VALID,24.3842,VALID,29,VALID,0.373437,
2012-02-14, 00:27:05,VALID,1000.71,VALID,0,VALID,92.9517,VALID,0,VALID,24.3842,VALID,29,VALID,0.408984,
2012-02-14, 00:28:05,VALID,1000.69,VALID,0,VALID,92.9745,VALID,0,VALID,24.3647,VALID,29,VALID,0.409375,
2012-02-14, 00:29:05,VALID,1000.73,VALID,0,VALID,92.9822,VALID,0,VALID,24.3629,VALID,31,VALID,0.169922,
2012-02-14, 00:30:05,VALID,1000.68,VALID,0,VALID,92.9898,VALID,0,VALID,24.3647,VALID,31,VALID,0.19375,
2012-02-14, 00:31:05,VALID,1000.71,VALID,0,VALID,92.9517,VALID,0,VALID,24.3647,VALID,31,VALID,0,
2012-02-14, 00:32:05,VALID,1000.71,VALID,0,VALID,92.9517,VALID,0,VALID,24.3647,VALID,31,VALID,0.0601562,
2012-02-14, 00:33:05,VALID,1000.74,VALID,0,VALID,92.9364,VALID,0,VALID,24.3433,VALID,31,VALID,0.192969,
2012-02-14, 00:34:05,VALID,1000.75,VALID,0,VALID,92.944,VALID,0,VALID,24.3842,VALID,31,VALID,0.3,
2012-02-14, 00:35:05,VALID,1000.73,VALID,0,VALID,92.944,VALID,0,VALID,24.3629,VALID,31,VALID,0.235547,
2012-02-14, 00:36:05,VALID,1000.7,VALID,0,VALID,92.9593,VALID,0,VALID,24.3629,VALID,31,VALID,0.107031,
2012-02-14, 00:37:05,VALID,1000.68,VALID,0,VALID,92.9517,VALID,0,VALID,24.4037,VALID,31,VALID,0,
2012-02-14, 00:38:05,VALID,1000.64,VALID,0,VALID,92.944,VALID,0,VALID,24.3824,VALID,31,VALID,0,
2012-02-14, 00:39:05,VALID,1000.62,VALID,0,VALID,92.8906,VALID,0,VALID,24.3842,VALID,31,VALID,0,
2012-02-14, 00:40:05,VALID,1000.6,VALID,0,VALID,92.8448,VALID,0,VALID,24.3842,VALID,31,VALID,0,
2012-02-14, 00:41:05,VALID,1000.56,VALID,0,VALID,92.8601,VALID,0,VALID,24.3824,VALID,31,VALID,0.103125,
2012-02-14, 00:42:05,VALID,1000.55,VALID,0,VALID,92.8906,VALID,0,VALID,24.3824,VALID,59,VALID,0.276563,
2012-02-14, 00:43:05,VALID,1000.53,VALID,0,VALID,92.9211,VALID,0,VALID,24.4233,VALID,59,VALID,0.408984,
2012-02-14, 00:44:05,VALID,1000.54,VALID,0,VALID,92.944,VALID,0,VALID,24.4214,VALID,84,VALID,0.713281,
2012-02-14, 00:45:05,VALID,1000.5,VALID,0,VALID,92.944,VALID,0,VALID,24.4214,VALID,84,VALID,0.462891,
2012-02-14, 00:46:05,VALID,1000.47,VALID,0,VALID,92.9059,VALID,0,VALID,24.4604,VALID,84,VALID,0.490625,
2012-02-14, 00:47:05,VALID,1000.49,VALID,0,VALID,92.822,VALID,0,VALID,24.4818,VALID,84,VALID,0.482812,
2012-02-14, 00:48:05,VALID,1000.47,VALID,0,VALID,92.7533,VALID,0,VALID,24.4604,VALID,84,VALID,0.283203,
2012-02-14, 00:49:05,VALID,1000.43,VALID,0,VALID,92.7075,VALID,0,VALID,24.5013,VALID,84,VALID,0.330078,
2012-02-14, 00:50:05,VALID,1000.44,VALID,0,VALID,92.677,VALID,0,VALID,24.5209,VALID,84,VALID,0.574219,
2012-02-14, 00:51:05,VALID,1000.46,VALID,0,VALID,92.5931,VALID,0,VALID,24.5013,VALID,84,VALID,0.529688,
2012-02-14, 00:52:05,VALID,1000.41,VALID,0,VALID,92.5168,VALID,0,VALID,24.5209,VALID,84,VALID,0.578516,
2012-02-14, 00:53:05,VALID,1000.42,VALID,0,VALID,92.4252,VALID,0,VALID,24.5209,VALID,84,VALID,0.553516,
2012-02-14, 00:54:05,VALID,1000.43,VALID,0,VALID,92.3566,VALID,0,VALID,24.5013,VALID,84,VALID,0.650781,
2012-02-14, 00:55:05,VALID,1000.41,VALID,0,VALID,92.2726,VALID,0,VALID,24.5404,VALID,84,VALID,0.699609,
2012-02-14, 00:56:05,VALID,1000.41,VALID,0,VALID,92.2574,VALID,0,VALID,24.5404,VALID,84,VALID,0.666016,
2012-02-14, 00:57:05,VALID,1000.4,VALID,0,VALID,92.1963,VALID,0,VALID,24.519,VALID,131,VALID,0.762109,
2012-02-14, 00:58:05,VALID,1000.4,VALID,0,VALID,92.1429,VALID,0,VALID,24.5404,VALID,131,VALID,0.790234,
2012-02-14, 00:59:05,VALID,1000.39,VALID,0,VALID,92.0743,VALID,0,VALID,24.5385,VALID,138,VALID,0.887109,
2012-02-14, 01:00:05,VALID,1000.39,VALID,0,VALID,91.9903,VALID,0,VALID,24.5599,VALID,138,VALID,0.966406,
2012-02-14, 01:01:05,VALID,1000.38,VALID,0,VALID,91.9674,VALID,0,VALID,24.5385,VALID,138,VALID,0.851953,
2012-02-14, 01:02:05,VALID,1000.37,VALID,0,VALID,91.9445,VALID,0,VALID,24.5385,VALID,133,VALID,0.888672,
2012-02-14, 01:03:05,VALID,1000.37,VALID,0,VALID,91.9293,VALID,0,VALID,24.5599,VALID,133,VALID,0.726563,
2012-02-14, 01:04:05,VALID,1000.33,VALID,0,VALID,91.9522,VALID,0,VALID,24.5794,VALID,133,VALID,0.639844,
2012-02-14, 01:05:05,VALID,1000.33,VALID,0,VALID,91.9217,VALID,0,VALID,24.5385,VALID,133,VALID,0.850781,
2012-02-14, 01:06:05,VALID,1000.33,VALID,0,VALID,91.8759,VALID,0,VALID,24.5794,VALID,139,VALID,0.890234,
2012-02-14, 01:07:05,VALID,1000.35,VALID,0,VALID,91.8377,VALID,0,VALID,24.5385,VALID,133,VALID,0.435937,
2012-02-14, 01:08:05,VALID,1000.32,VALID,0,VALID,91.8225,VALID,0,VALID,24.5385,VALID,117,VALID,0.767969,
2012-02-14, 01:09:05,VALID,1000.33,VALID,0,VALID,91.8301,VALID,0,VALID,24.519,VALID,117,VALID,0.407031,
2012-02-14, 01:10:05,VALID,1000.33,VALID,0,VALID,91.8377,VALID,0,VALID,24.5404,VALID,117,VALID,0.300391,
2012-02-14, 01:11:05,VALID,1000.34,VALID,0,VALID,91.8683,VALID,0,VALID,24.519,VALID,117,VALID,0,
2012-02-14, 01:12:05,VALID,1000.33,VALID,0,VALID,91.8606,VALID,0,VALID,24.519,VALID,117,VALID,0,
2012-02-14, 01:13:05,VALID,1000.3,VALID,0,VALID,91.914,VALID,0,VALID,24.4995,VALID,117,VALID,0,
2012-02-14, 01:14:05,VALID,1000.27,VALID,0,VALID,91.9827,VALID,0,VALID,24.4995,VALID,117,VALID,0,
2012-02-14, 01:15:05,VALID,1000.26,VALID,0,VALID,92.0514,VALID,0,VALID,24.4995,VALID,117,VALID,0,
2012-02-14, 01:16:05,VALID,1000.21,VALID,0,VALID,92.0743,VALID,0,VALID,24.4995,VALID,117,VALID,0,
2012-02-14, 01:17:05,VALID,1000.19,VALID,0,VALID,92.0819,VALID,0,VALID,24.4995,VALID,117,VALID,0,
2012-02-14, 01:18:05,VALID,1000.21,VALID,0,VALID,92.0743,VALID,0,VALID,24.5013,VALID,117,VALID,0,
2012-02-14, 01:19:05,VALID,1000.17,VALID,0,VALID,92.0514,VALID,0,VALID,24.48,VALID,117,VALID,0,
2012-02-14, 01:20:05,VALID,1000.18,VALID,0,VALID,92.0209,VALID,0,VALID,24.4604,VALID,117,VALID,0,
2012-02-14, 01:21:05,VALID,1000.16,VALID,0,VALID,92.0285,VALID,0,VALID,24.4409,VALID,117,VALID,0,
2012-02-14, 01:22:05,VALID,1000.12,VALID,0,VALID,91.998,VALID,0,VALID,24.4428,VALID,117,VALID,0,
2012-02-14, 01:23:05,VALID,1000.12,VALID,0,VALID,91.9827,VALID,0,VALID,24.4214,VALID,117,VALID,0,
2012-02-14, 01:24:05,VALID,1000.09,VALID,0,VALID,91.9827,VALID,0,VALID,24.4428,VALID,117,VALID,0,
2012-02-14, 01:25:05,VALID,1000.05,VALID,0,VALID,91.998,VALID,0,VALID,24.4019,VALID,117,VALID,0,
2012-02-14, 01:26:05,VALID,1000.03,VALID,0,VALID,91.9827,VALID,0,VALID,24.4214,VALID,117,VALID,0,
2012-02-14, 01:27:05,VALID,999.959,VALID,0,VALID,91.9369,VALID,0,VALID,24.4233,VALID,110,VALID,0.670703,
2012-02-14, 01:28:05,VALID,999.95,VALID,0,VALID,91.8606,VALID,0,VALID,24.4233,VALID,101,VALID,0.791016,
2012-02-14, 01:29:05,VALID,999.937,VALID,0,VALID,91.7767,VALID,0,VALID,24.4233,VALID,101,VALID,0.550391,
2012-02-14, 01:30:05,VALID,999.959,VALID,0,VALID,91.7385,VALID,0,VALID,24.4037,VALID,99,VALID,0.689844,
2012-02-14, 01:31:05,VALID,999.944,VALID,0,VALID,91.7309,VALID,0,VALID,24.3629,VALID,98,VALID,0.396875,
2012-02-14, 01:32:05,VALID,999.952,VALID,0,VALID,91.7538,VALID,0,VALID,24.3647,VALID,98,VALID,0.394922,
2012-02-14, 01:33:04,VALID,999.965,VALID,0,VALID,91.7538,VALID,0,VALID,24.3452,VALID,98,VALID,0.0523437,
2012-02-14, 01:34:04,VALID,999.986,VALID,0,VALID,91.7767,VALID,0,VALID,24.3452,VALID,98,VALID,0.0679687,
2012-02-14, 01:35:04,VALID,999.965,VALID,0,VALID,91.792,VALID,0,VALID,24.3043,VALID,98,VALID,0.078125,
2012-02-14, 01:36:04,VALID,999.956,VALID,0,VALID,91.8454,VALID,0,VALID,24.3062,VALID,98,VALID,0.2125,
2012-02-14, 01:37:04,VALID,999.931,VALID,0,VALID,91.9217,VALID,0,VALID,24.3043,VALID,98,VALID,0.551172,
2012-02-14, 01:38:04,VALID,999.895,VALID,0,VALID,91.9674,VALID,0,VALID,24.3043,VALID,84,VALID,0.551172,
2012-02-14, 01:39:04,VALID,999.889,VALID,0,VALID,92.0361,VALID,0,VALID,24.3043,VALID,84,VALID,0.591797,
2012-02-14, 01:40:04,VALID,999.896,VALID,0,VALID,92.0514,VALID,0,VALID,24.3043,VALID,84,VALID,0.510938,
2012-02-14, 01:41:04,VALID,999.882,VALID,0,VALID,92.0285,VALID,0,VALID,24.3647,VALID,84,VALID,0.312109,
2012-02-14, 01:42:04,VALID,999.885,VALID,0,VALID,92.0209,VALID,0,VALID,24.3452,VALID,84,VALID,0.154297,
2012-02-14, 01:43:04,VALID,999.862,VALID,0,VALID,91.9827,VALID,0,VALID,24.3452,VALID,84,VALID,0,
2012-02-14, 01:44:04,VALID,999.888,VALID,0,VALID,91.9293,VALID,0,VALID,24.3238,VALID,84,VALID,0.0375,
2012-02-14, 01:45:04,VALID,999.907,VALID,0,VALID,91.8835,VALID,0,VALID,24.3452,VALID,84,VALID,0,
2012-02-14, 01:46:04,VALID,999.886,VALID,0,VALID,91.9217,VALID,0,VALID,24.3043,VALID,84,VALID,0,
2012-02-14, 01:47:04,VALID,999.88,VALID,0,VALID,91.9598,VALID,0,VALID,24.2848,VALID,84,VALID,0,
2012-02-14, 01:48:04,VALID,999.866,VALID,0,VALID,92.0056,VALID,0,VALID,24.3043,VALID,84,VALID,0,
2012-02-14, 01:49:04,VALID,999.861,VALID,0,VALID,92.12,VALID,0,VALID,24.2848,VALID,84,VALID,0.00585938,
2012-02-14, 01:50:04,VALID,999.807,VALID,0,VALID,92.204,VALID,0,VALID,24.3043,VALID,84,VALID,0.308203,
2012-02-14, 01:51:04,VALID,999.824,VALID,0,VALID,92.3642,VALID,0,VALID,24.3062,VALID,84,VALID,0.455469,
2012-02-14, 01:52:04,VALID,999.75,VALID,0,VALID,92.471,VALID,0,VALID,24.3257,VALID,84,VALID,0.50625,
2012-02-14, 01:53:04,VALID,999.742,VALID,0,VALID,92.5702,VALID,0,VALID,24.3043,VALID,84,VALID,0.500391,
2012-02-14, 01:54:04,VALID,999.747,VALID,0,VALID,92.616,VALID,0,VALID,24.3257,VALID,84,VALID,0.411719,
2012-02-14, 01:55:04,VALID,999.718,VALID,0,VALID,92.6999,VALID,0,VALID,24.3257,VALID,84,VALID,0.310547,
2012-02-14, 01:56:04,VALID,999.723,VALID,0,VALID,92.7457,VALID,0,VALID,24.3062,VALID,84,VALID,0.182031,
2012-02-14, 01:57:04,VALID,999.71,VALID,0,VALID,92.7838,VALID,0,VALID,24.3257,VALID,84,VALID,0,
2012-02-14, 01:58:04,VALID,999.695,VALID,0,VALID,92.8067,VALID,0,VALID,24.3062,VALID,84,VALID,0,
2012-02-14, 01:59:04,VALID,999.721,VALID,0,VALID,92.822,VALID,0,VALID,24.3257,VALID,84,VALID,0,
2012-02-14, 02:00:04,VALID,999.715,VALID,0,VALID,92.8448,VALID,0,VALID,24.3257,VALID,84,VALID,0,
2012-02-14, 02:01:04,VALID,999.711,VALID,0,VALID,92.8525,VALID,0,VALID,24.3257,VALID,84,VALID,0,
2012-02-14, 02:02:04,VALID,999.731,VALID,0,VALID,92.8372,VALID,0,VALID,24.3257,VALID,84,VALID,0,
2012-02-14, 02:03:04,VALID,999.759,VALID,0,VALID,92.8754,VALID,0,VALID,24.3043,VALID,84,VALID,0,
2012-02-14, 02:04:04,VALID,999.809,VALID,0,VALID,92.9059,VALID,0,VALID,24.3257,VALID,84,VALID,0.263672,
2012-02-14, 02:05:04,VALID,999.84,VALID,0,VALID,92.944,VALID,0,VALID,24.3452,VALID,84,VALID,0.444922,
2012-02-14, 02:06:04,VALID,999.859,VALID,0,VALID,92.9745,VALID,0,VALID,24.3647,VALID,84,VALID,0.348437,
2012-02-14, 02:07:04,VALID,999.882,VALID,0,VALID,93.0051,VALID,0,VALID,24.3647,VALID,84,VALID,0.360156,
2012-02-14, 02:08:04,VALID,999.859,VALID,0,VALID,93.0356,VALID,0,VALID,24.3842,VALID,84,VALID,0.222266,
2012-02-14, 02:09:04,VALID,999.862,VALID,0,VALID,93.0585,VALID,0,VALID,24.4037,VALID,84,VALID,0.169141,
2012-02-14, 02:10:04,VALID,999.838,VALID,0,VALID,93.0432,VALID,0,VALID,24.3824,VALID,84,VALID,0,
2012-02-14, 02:11:04,VALID,999.838,VALID,0,VALID,93.0432,VALID,0,VALID,24.3824,VALID,84,VALID,0,
2012-02-14, 02:12:04,VALID,999.787,VALID,0,VALID,93.0051,VALID,0,VALID,24.4233,VALID,84,VALID,0,
2012-02-14, 02:13:04,VALID,999.777,VALID,0,VALID,92.9974,VALID,0,VALID,24.4428,VALID,84,VALID,0,
2012-02-14, 02:14:04,VALID,999.772,VALID,0,VALID,93.0051,VALID,0,VALID,24.4233,VALID,84,VALID,0.109766,
2012-02-14, 02:15:04,VALID,999.75,VALID,0,VALID,93.0203,VALID,0,VALID,24.4623,VALID,84,VALID,0.279297,
2012-02-14, 02:16:04,VALID,999.757,VALID,0,VALID,93.0127,VALID,0,VALID,24.4409,VALID,84,VALID,0.427734,
2012-02-14, 02:17:04,VALID,999.751,VALID,0,VALID,92.9974,VALID,0,VALID,24.4604,VALID,84,VALID,0.303516,
2012-02-14, 02:18:04,VALID,999.74,VALID,0,VALID,92.9669,VALID,0,VALID,24.4818,VALID,205,VALID,0.661719,
2012-02-14, 02:19:04,VALID,999.752,VALID,0,VALID,92.883,VALID,0,VALID,24.5013,VALID,206,VALID,0.791016,
2012-02-14, 02:20:04,VALID,999.716,VALID,0,VALID,92.8143,VALID,0,VALID,24.5013,VALID,206,VALID,0.542578,
2012-02-14, 02:21:04,VALID,999.72,VALID,0,VALID,92.6999,VALID,0,VALID,24.5209,VALID,227,VALID,0.719922,
2012-02-14, 02:22:04,VALID,999.689,VALID,0,VALID,92.5778,VALID,0,VALID,24.4995,VALID,218,VALID,1.00664,
2012-02-14, 02:23:04,VALID,999.675,VALID,0,VALID,92.4252,VALID,0,VALID,24.4995,VALID,176,VALID,1.41172,
2012-02-14, 02:24:04,VALID,999.662,VALID,0,VALID,92.1887,VALID,0,VALID,24.5013,VALID,166,VALID,1.15039,
2012-02-14, 02:25:04,VALID,999.627,VALID,0,VALID,92.0056,VALID,0,VALID,24.48,VALID,171,VALID,1.05977,
2012-02-14, 02:26:04,VALID,999.607,VALID,0,VALID,91.9522,VALID,0,VALID,24.4995,VALID,190,VALID,1.39805,
2012-02-14, 02:27:04,VALID,999.638,VALID,0,VALID,91.8835,VALID,0,VALID,24.5209,VALID,192,VALID,0.838672,
2012-02-14, 02:28:04,VALID,999.624,VALID,0,VALID,91.7996,VALID,0,VALID,24.5404,VALID,180,VALID,1.08359,
2012-02-14, 02:29:04,VALID,999.655,VALID,0,VALID,91.708,VALID,0,VALID,24.519,VALID,180,VALID,1.36094,
2012-02-14, 02:30:04,VALID,999.689,VALID,0,VALID,91.4334,VALID,0,VALID,24.5404,VALID,175,VALID,1.13828,
2012-02-14, 02:31:04,VALID,999.715,VALID,0,VALID,91.2808,VALID,0,VALID,24.5404,VALID,174,VALID,1.1418,
2012-02-14, 02:32:04,VALID,999.694,VALID,0,VALID,91.1968,VALID,0,VALID,24.519,VALID,180,VALID,0.704297,
2012-02-14, 02:33:04,VALID,999.695,VALID,0,VALID,91.1511,VALID,0,VALID,24.5385,VALID,181,VALID,0.566406,
2012-02-14, 02:34:04,VALID,999.723,VALID,0,VALID,91.0061,VALID,0,VALID,24.5404,VALID,195,VALID,0.879297,
2012-02-14, 02:35:04,VALID,999.712,VALID,0,VALID,90.9069,VALID,0,VALID,24.5599,VALID,200,VALID,0.647266,
2012-02-14, 02:36:04,VALID,999.708,VALID,0,VALID,90.9451,VALID,0,VALID,24.5385,VALID,181,VALID,0.973828,
2012-02-14, 02:37:04,VALID,999.72,VALID,0,VALID,90.8383,VALID,0,VALID,24.5385,VALID,179,VALID,0.846875,
2012-02-14, 02:38:04,VALID,999.716,VALID,0,VALID,90.7543,VALID,0,VALID,24.5599,VALID,156,VALID,0.985937,
2012-02-14, 02:39:04,VALID,999.73,VALID,0,VALID,90.8001,VALID,0,VALID,24.558,VALID,167,VALID,0.573047,
2012-02-14, 02:40:04,VALID,999.736,VALID,0,VALID,90.6094,VALID,0,VALID,24.5385,VALID,167,VALID,0.736719,
2012-02-14, 02:41:04,VALID,999.743,VALID,0,VALID,90.4568,VALID,0,VALID,24.5794,VALID,167,VALID,0.558984,
2012-02-14, 02:42:04,VALID,999.752,VALID,0,VALID,90.5254,VALID,0,VALID,24.5794,VALID,167,VALID,0.782812,
2012-02-14, 02:43:04,VALID,999.757,VALID,0,VALID,90.5865,VALID,0,VALID,24.558,VALID,162,VALID,1.01953,
2012-02-14, 02:44:04,VALID,999.732,VALID,0,VALID,90.6628,VALID,0,VALID,24.558,VALID,159,VALID,0.926172,
2012-02-14, 02:45:04,VALID,999.746,VALID,0,VALID,90.8154,VALID,0,VALID,24.5794,VALID,159,VALID,0.780469,
2012-02-14, 02:46:04,VALID,999.729,VALID,0,VALID,90.8993,VALID,0,VALID,24.5794,VALID,159,VALID,0.471094,
2012-02-14, 02:47:04,VALID,999.728,VALID,0,VALID,90.9756,VALID,0,VALID,24.5599,VALID,159,VALID,0.090625,
2012-02-14, 02:48:04,VALID,999.725,VALID,0,VALID,90.9832,VALID,0,VALID,24.5599,VALID,159,VALID,0.277344,
2012-02-14, 02:49:04,VALID,999.724,VALID,0,VALID,91.0137,VALID,0,VALID,24.5404,VALID,160,VALID,0.596875,
2012-02-14, 02:50:04,VALID,999.748,VALID,0,VALID,91.0519,VALID,0,VALID,24.5599,VALID,179,VALID,0.589844,
2012-02-14, 02:51:04,VALID,999.749,VALID,0,VALID,90.9909,VALID,0,VALID,24.5599,VALID,179,VALID,0.263281,
2012-02-14, 02:52:04,VALID,999.765,VALID,0,VALID,91.0214,VALID,0,VALID,24.5404,VALID,179,VALID,0.0335938,
2012-02-14, 02:53:04,VALID,999.764,VALID,0,VALID,91.1663,VALID,0,VALID,24.5385,VALID,179,VALID,0.0773437,
2012-02-14, 02:54:04,VALID,999.739,VALID,0,VALID,91.3571,VALID,0,VALID,24.5599,VALID,172,VALID,0.505078,
2012-02-14, 02:55:04,VALID,999.716,VALID,0,VALID,91.4486,VALID,0,VALID,24.5599,VALID,162,VALID,0.569141,
2012-02-14, 02:56:04,VALID,999.711,VALID,0,VALID,91.3876,VALID,0,VALID,24.5385,VALID,168,VALID,0.454297,
2012-02-14, 02:57:04,VALID,999.675,VALID,0,VALID,91.3494,VALID,0,VALID,24.5794,VALID,168,VALID,0.755078,
2012-02-14, 02:58:04,VALID,999.635,VALID,0,VALID,91.3952,VALID,0,VALID,24.5599,VALID,166,VALID,1.14531,
2012-02-14, 02:59:04,VALID,999.624,VALID,0,VALID,91.5707,VALID,0,VALID,24.5794,VALID,152,VALID,1.36016,
2012-02-14, 03:00:04,VALID,999.59,VALID,0,VALID,91.5631,VALID,0,VALID,24.5599,VALID,150,VALID,1.49961,
2012-02-14, 03:01:04,VALID,999.582,VALID,0,VALID,91.6088,VALID,0,VALID,24.5404,VALID,149,VALID,1.37031,
2012-02-14, 03:02:04,VALID,999.581,VALID,0,VALID,91.6241,VALID,0,VALID,24.5618,VALID,148,VALID,0.959375,
2012-02-14, 03:03:04,VALID,999.593,VALID,0,VALID,91.6317,VALID,0,VALID,24.5209,VALID,151,VALID,1.05781,
2012-02-14, 03:04:04,VALID,999.565,VALID,0,VALID,91.5707,VALID,0,VALID,24.5013,VALID,157,VALID,0.697656,
2012-02-14, 03:05:04,VALID,999.586,VALID,0,VALID,91.6394,VALID,0,VALID,24.5013,VALID,157,VALID,0.574609,
2012-02-14, 03:06:04,VALID,999.57,VALID,0,VALID,91.6928,VALID,0,VALID,24.5013,VALID,174,VALID,0.794141,
2012-02-14, 03:07:04,VALID,999.553,VALID,0,VALID,91.7004,VALID,0,VALID,24.5013,VALID,174,VALID,0.774219,
2012-02-14, 03:08:04,VALID,999.516,VALID,0,VALID,91.7538,VALID,0,VALID,24.5013,VALID,182,VALID,0.925391,
2012-02-14, 03:09:04,VALID,999.512,VALID,0,VALID,91.7462,VALID,0,VALID,24.5013,VALID,190,VALID,0.930078,
2012-02-14, 03:10:04,VALID,999.538,VALID,0,VALID,91.7309,VALID,0,VALID,24.5013,VALID,180,VALID,0.800391,
2012-02-14, 03:11:04,VALID,999.503,VALID,0,VALID,91.7843,VALID,0,VALID,24.48,VALID,207,VALID,1.04141,
2012-02-14, 03:12:04,VALID,999.54,VALID,0,VALID,91.792,VALID,0,VALID,24.5209,VALID,206,VALID,0.982031,
2012-02-14, 03:13:04,VALID,999.571,VALID,0,VALID,91.8072,VALID,0,VALID,24.5209,VALID,207,VALID,0.807031,
2012-02-14, 03:14:04,VALID,999.611,VALID,0,VALID,91.792,VALID,0,VALID,24.5404,VALID,214,VALID,0.757422,
2012-02-14, 03:15:04,VALID,999.64,VALID,0,VALID,91.7157,VALID,0,VALID,24.5404,VALID,217,VALID,0.286719,
2012-02-14, 03:16:04,VALID,999.696,VALID,0,VALID,91.6623,VALID,0,VALID,24.519,VALID,227,VALID,0.480469,
2012-02-14, 03:17:04,VALID,999.711,VALID,0,VALID,91.6241,VALID,0,VALID,24.519,VALID,228,VALID,0.0703125,
2012-02-14, 03:18:04,VALID,999.711,VALID,0,VALID,91.6241,VALID,0,VALID,24.519,VALID,228,VALID,0.000390625,
2012-02-14, 03:19:04,VALID,999.721,VALID,0,VALID,91.6851,VALID,0,VALID,24.519,VALID,228,VALID,0.399609,
2012-02-14, 03:20:04,VALID,999.727,VALID,0,VALID,91.7691,VALID,0,VALID,24.5599,VALID,344,VALID,0.683594,
2012-02-14, 03:21:04,VALID,999.692,VALID,0,VALID,91.853,VALID,0,VALID,24.5385,VALID,344,VALID,0.613281,
2012-02-14, 03:22:04,VALID,999.718,VALID,0,VALID,91.9293,VALID,0,VALID,24.5404,VALID,344,VALID,0.620313,
2012-02-14, 03:23:04,VALID,999.709,VALID,0,VALID,91.998,VALID,0,VALID,24.5209,VALID,344,VALID,0.649609,
2012-02-14, 03:24:04,VALID,999.717,VALID,0,VALID,92.1124,VALID,0,VALID,24.5209,VALID,344,VALID,0.665625,
2012-02-14, 03:25:04,VALID,999.691,VALID,0,VALID,92.2116,VALID,0,VALID,24.5209,VALID,344,VALID,0.853125,
2012-02-14, 03:26:04,VALID,999.704,VALID,0,VALID,92.265,VALID,0,VALID,24.5013,VALID,344,VALID,0.907422,
2012-02-14, 03:27:04,VALID,999.714,VALID,0,VALID,92.326,VALID,0,VALID,24.4604,VALID,344,VALID,0.987891,
2012-02-14, 03:28:04,VALID,999.702,VALID,0,VALID,92.4176,VALID,0,VALID,24.4623,VALID,348,VALID,1.10273,
2012-02-14, 03:29:04,VALID,999.685,VALID,0,VALID,92.4939,VALID,0,VALID,24.4623,VALID,353,VALID,0.669922,
2012-02-14, 03:30:04,VALID,999.656,VALID,0,VALID,92.5473,VALID,0,VALID,24.4214,VALID,349,VALID,0.589844,
2012-02-14, 03:31:04,VALID,999.663,VALID,0,VALID,92.5702,VALID,0,VALID,24.4428,VALID,345,VALID,0.557813,
2012-02-14, 03:32:04,VALID,999.687,VALID,0,VALID,92.5854,VALID,0,VALID,24.4019,VALID,322,VALID,0.579687,
2012-02-14, 03:33:04,VALID,999.743,VALID,0,VALID,92.6007,VALID,0,VALID,24.4019,VALID,323,VALID,1.14102,
2012-02-14, 03:34:04,VALID,999.797,VALID,0,VALID,92.7151,VALID,0,VALID,24.4019,VALID,330,VALID,1.34258,
2012-02-14, 03:35:04,VALID,999.845,VALID,0,VALID,92.7914,VALID,0,VALID,24.4233,VALID,328,VALID,1.47148,
2012-02-14, 03:36:04,VALID,999.842,VALID,0,VALID,92.7762,VALID,0,VALID,24.4019,VALID,331,VALID,1.14023,
2012-02-14, 03:37:04,VALID,999.869,VALID,0,VALID,92.7609,VALID,0,VALID,24.3824,VALID,351,VALID,1.60742,
2012-02-14, 03:38:04,VALID,999.891,VALID,0,VALID,92.7838,VALID,0,VALID,24.3824,VALID,343,VALID,1.51836,
2012-02-14, 03:39:04,VALID,999.915,VALID,0,VALID,92.7838,VALID,0,VALID,24.3824,VALID,360,VALID,1.13555,
2012-02-14, 03:40:04,VALID,999.898,VALID,0,VALID,92.8296,VALID,0,VALID,24.3824,VALID,360,VALID,0.972266,
2012-02-14, 03:41:04,VALID,999.882,VALID,0,VALID,92.8372,VALID,0,VALID,24.3824,VALID,359,VALID,0.379297,
2012-02-14, 03:42:04,VALID,999.882,VALID,0.5,VALID,92.8525,VALID,0,VALID,24.4037,VALID,359,VALID,0.0382813,
2012-02-14, 03:43:04,VALID,999.886,VALID,0,VALID,92.8754,VALID,0,VALID,24.3824,VALID,359,VALID,0.0359375,
2012-02-14, 03:44:04,VALID,999.877,VALID,0,VALID,92.9059,VALID,0,VALID,24.4037,VALID,358,VALID,0.412891,
2012-02-14, 03:45:04,VALID,999.904,VALID,0,VALID,92.9288,VALID,0,VALID,24.3824,VALID,358,VALID,0.123047,
2012-02-14, 03:46:04,VALID,999.907,VALID,0,VALID,92.944,VALID,0,VALID,24.4233,VALID,349,VALID,0.278516,
2012-02-14, 03:47:04,VALID,999.914,VALID,0,VALID,92.9745,VALID,0,VALID,24.4233,VALID,337,VALID,0.412109,